USA 159 (DSP 21)

Last updated on Wed Sep 17 2025 00:02:46 GMT+0000 (Coordinated Universal Time)

1 26880U 01033A 25259.21708627 -.00000311 00000+0 00000+0 0 9991 2 26880 12.5268 18.3152 0001256 283.7418 82.3814 1.00276449 30223
UTC large
Height (km)
Speed (km/s)
/
Latitude / Longitude
Inclination (degrees)
Orbital Period (minutes)
Azimuth
Elevation
Range (km)
Doppler Factor

Next 0 passes for location: London (51.5072 / 0.1276)

Sorry there are no passes over London.